2017-008AM

Last updated on Feb. 28, 2017, 12:15 a.m. UTC

1 41983U 17008AM  17058.89635326  .00005706  00000-0  25494-3 0  9999
2 41983  97.5129 120.5147 0007974 212.2669 147.8040 15.21716322  1752
UTC
Height (km)
Latitude
Longitude
Inclination
Orbital Period
UTC large
Height (km)
Speed (km/s)
/
Latitude / Longitude
Inclination (degrees)
Orbital Period (minutes)
Azimuth
Elevation
Range (km)
Doppler Factor
iOS Compass Heading
iOS Angle